Location: Palomar Mountain Lodge
(33.3110°N, 116.8495°W)
Time: 10:51:53
(UTC-07:00)

Spot 2 Rocket - Pass Details

Date: 14 June 2018
Orbit: 757 x 772 km, 98.7° (Epoch: 18 June)

Event Time Altitude Azimuth Distance (km) Brightness Sun altitude
Exits shadow 20:57:40 10° 160° (SSE) 2,288 5.5 -11.2°
Reaches altitude 10° 20:57:42 10° 160° (SSE) 2,274 5.4 -11.2°
Maximum altitude 21:02:42 75° 75° (ENE) 784 3.4 -12.0°
Drops below altitude 10° 21:07:43 10° 351° (N) 2,291 6.7 -12.9°
Sets 21:10:02 0° 350° (N) 3,222 7.6 -13.2°
